map of REP home
Great Circle Mapper logo
REP - Airport
Location
City:  Siem Reap, Cambodia
Name:Angkor International Airport
ICAO / IATA:VDSR / REP

Details
Type:Airport (Aerodrome, Airfield)
Use:International (customs port of entry)
Latitude:1324'38"N (13.410666)
Longitude:10348'46"E (103.812840)
Datum:WGS 1984
Elevation:60 ft (18 m)
Variation:0.7W (WMM2010 magnetic declination)
Runways:1
Longest:8366 × 148 ft (2550 × 45 m), paved

Time
Time Zone:UTC+7
Local Time:

Weather
METAR:VDSR 280030Z VRB02KT 9000 FEW020 26/24 Q1010
TAF:VDSR 272300Z 2800/2818 04007KT 9999 SCT017
TEMPO 2803/2806 VRB03KT
TEMPO 2807/2812 5000 SHRA SCT015 FEW017CB

Related Locations
Nearby:
Farthest:PIO: 12447 mi / 20032 km
Pisco, PE

Find:

   beyond  
but within

Other Information
Maps:
NOTAMs:
Links:
Sources:

  
flag of Cambodia   

Sectional Chart

Flight Planning
at skyvector.com

Satellite Image

Google Maps Satellite View

 

Copyright © 2004-2014 Karl L. Swartz. All rights reserved.
The Great Circle Mapper name and logo are trademarks of the Great Circle Mapper.
All other trademarks mentioned herein belong to their respective owners.
Please see credits for attibutions and further copyright information.

  Follow gcmap on Facebook Follow gcmap on Twitter

hCard Microformat

Geo Microformat